Regional Weather Roundup
Issued by NWS Newport/Morehead, NC

Current Version | Previous Version | Graphics & Text | Print | Product List | Glossary Off
Versions: 1 2 3 4 5 6 7 8 9 10 11 12 13 14 15 16 17 18 19 20 21 22 23 24 25 26 27 28 29 30 31 32 33 34 35 36 37 38 39 40 41 42 43 44 45 46 47 48 49 50

000
ASUS42 KMHX 252022
RWRMHX
WEATHER ROUNDUP FOR EASTERN NORTH CAROLINA
NATIONAL WEATHER SERVICE NEWPORT/MOREHEAD CITY NC
400 PM EDT SAT OCT 25 2014

NOTE: "FAIR" INDICATES FEW OR NO CLOUDS BELOW 12,000 FEET
WITH NO SIGNIFICANT WEATHER AND/OR OBSTRUCTIONS TO VISIBILITY

NCZ015>017-031-032-045>047-102-103-252100-
NORTH COAST

CITY           SKY/WX    TMP DP  RH WIND       PRES   REMARKS
EDENTON        SUNNY     71  46  42 W6        29.88F
ELIZABETH CITY SUNNY     73  49  42 SW8       29.87F
KITTY HAWK     CLEAR     67  47  49 CALM      29.86F
MANTEO         SUNNY     66  47  49 NW3       29.88S

$$

NCZ045>047-081-094-103-104-252100-
CENTRAL COAST

CITY           SKY/WX    TMP DP  RH WIND       PRES   REMARKS
FRISCO         SUNNY     68  49  50 VRB6      29.88F
SWANQUARTER      N/A     70 N/A N/A SW7       29.85S

$$

NCZ095-097-098-100-101-252100-
SOUTHERN COAST

CITY           SKY/WX    TMP DP  RH WIND       PRES   REMARKS
BEAUFORT       SUNNY     69  51  52 SW9       29.90F
CEDAR ISLAND     N/A     68 N/A N/A N3        29.91F
JACKSONVILLE   SUNNY     73  44  35 NW6       29.89F
PINEY ISLAND   CLEAR     73  46  38 CALM      29.89F
WILMINGTON     SUNNY     74  42  31 CALM      29.90F


$$

NCZ011>013-027>030-043-044-078>080-089-090>093-098-252100-
COASTAL PLAIN

CITY           SKY/WX    TMP DP  RH WIND       PRES   REMARKS
AHOSKIE        SUNNY     68  43  40 CALM      29.88F
CLINTON        SUNNY     72  43  35 W6        29.92S
ELIZABETHTOWN  SUNNY     73  39  29 W6        29.92S
GOLDSBORO      SUNNY     73  47  40 NW3       29.89F
GREENVILLE     SUNNY     72  43  35 W3        29.92F
HAVELOCK       SUNNY     72  44  36 SW5       29.90
KENANSVILLE    SUNNY     72  42  33 W5        29.92S
KINSTON        SUNNY     73  45  35 CALM      29.91F
NEW BERN       SUNNY     75  45  34 W5        29.90F
RICHLANDS      SUNNY     73  45  35 SW6       29.91S
ROCKY MOUNT    SUNNY     71  43  36 W6        29.91F
WASHINGTON     SUNNY     71  44  37 W7        29.90S
WHITEVILLE     SUNNY     73  41  31 W5        29.92S

$$

AMZ130-135-150-152-154-156-158-170-250-252-270-ANZ085-086-088-633-658-670-252100-
MARINE OBSERVATIONS

STATION/POSITION TIME  TEMP    WIND        PRES    WAVE   SWELL
                       AIR SEA DIR/SP/G            HT/PER HT/PER
                 (UTC) (F)     (DEG/KT/KT) (MB)    (FT/S) (FT/S)
CHESAPEAKE LIGHT 2000   66     250/  5/  6 1011.6
64 E VA BEACH    2000   63 67  290/ 10/ 10 1010.9    3/10   2/10
DUCK             2000   67 67  170/  2/  4 1010.7
2 E DUCK         2000                        N/A     3/ 9
10 NE DUCK       1900      68                N/A     3/10   2/11
OREGON INLET     2000   65 64   20/  6/  7 1011.5
13E OREGON INLT  2000      69                N/A     3/10   2/11
HATTERAS CG      2000   68 67  230/  6/  8 1012.2
DIAMOND BUOY     2000   67     270/  6/  8 1012.6    3/ 8   3/ 8
17 S OCRACOKE    1900          VRB  4/  4  1013.1
CAPE LOOKOUT     2000   68     210/  8/  9 1012.4
BEAUFORT LAB     2000   68 67  210/  7/ 10 1011.6
30 SE NEW RIVER  2000   68 75  240/  4/  4 1012.9    2/ 8   2/ 8
5 SE WRIGHTSVLE  2000   65 72  170/ 10/ 12   N/A
225 S CAPE HAT   1949   73 77   20/ 10/ 14 1012.2    4/ 8   3/ 8
41 SE CHARLESTON 2000   69 78  340/  4/  8 1014.1    2/10   2/10

$$



USA.gov is the U.S. government's official web portal to all federal, state and local government web resources and services.